Location: Gombori
(14.9797°N, 2.9419°W)
Time: 01:26:54
(UTC+00:00)

Meteor 2-13 Rocket - Pass Details

Date: 01 December 2021
Orbit: 936 x 957 km, 82.5° (Epoch: 24 January)

Event Time Altitude Azimuth Distance (km) Brightness Sun altitude
Rises 05:40:14 0° 202° (SSW) 3,623 7.5 -10.2°
Reaches altitude 10° 05:42:55 10° 210° (SSW) 2,676 6.7 -9.6°
Maximum altitude 05:48:31 38° 276° (W) 1,415 4.9 -8.3°
Drops below altitude 10° 05:54:08 10° 343° (NNW) 2,667 6.4 -7.0°
Sets 05:56:48 0° 351° (N) 3,609 7.2 -6.4°
